This is the latest recevied weather packets stored in our database for station/object KC3UTO. If no packets are shown the sender has not sent any weather packets the latest 10 day(s).
| Time | Temp. | Humidity | Pressure | Rain* | Wind** | Luminosity | Snow |
|---|---|---|---|---|---|---|---|
| 1777644099 | 11.67° C | 55% | 1013.5 hPa | 0 mm | - | 663 W/m² | - |
| 1777643796 | 12.22° C | 55% | 1013.5 hPa | 0 mm | - | 648 W/m² | - |
| 1777643493 | 12.22° C | 56% | 1013.4 hPa | 0 mm | - | 632 W/m² | - |
| 1777643190 | 12.22° C | 56% | 1013.4 hPa | 0 mm | - | 611 W/m² | - |
| 1777642886 | 12.22° C | 57% | 1013.3 hPa | 0 mm | - | 597 W/m² | - |
| 1777642583 | 11.67° C | 57% | 1013.4 hPa | 0 mm | - | 577 W/m² | - |
| 1777642280 | 11.67° C | 57% | 1013.3 hPa | 0 mm | - | 559 W/m² | - |
| 1777641977 | 11.67° C | 56% | 1013.5 hPa | 0 mm | - | 543 W/m² | - |
| 1777641672 | 11.67° C | 59% | 1013.4 hPa | 0 mm | - | 526 W/m² | - |
| 1777641368 | 11.67° C | 57% | 1013.5 hPa | 0 mm | - | 507 W/m² | - |
| 1777641063 | 11.11° C | 58% | 1013.4 hPa | 0 mm | - | 488 W/m² | - |
| 1777640759 | 11.11° C | 58% | 1013.6 hPa | 0 mm | - | 470 W/m² | - |
| 1777640456 | 10.56° C | 60% | 1013.3 hPa | 0 mm | - | 452 W/m² | - |
| 1777640153 | 11.11° C | 59% | 1013.6 hPa | 0 mm | - | 428 W/m² | - |
| 1777639850 | 10.56° C | 59% | 1013.6 hPa | 0 mm | - | 382 W/m² | - |
| 1777639548 | 11.11° C | 61% | 1013.5 hPa | 0 mm | - | 365 W/m² | - |
| 1777639244 | 10.56° C | 61% | 1013.4 hPa | 0 mm | - | 352 W/m² | - |
| 1777638940 | 10.56° C | 61% | 1013.6 hPa | 0 mm | - | 338 W/m² | - |
| 1777638636 | 10.56° C | 64% | 1013.6 hPa | 0 mm | - | 331 W/m² | - |
| 1777638333 | 10.56° C | 65% | 1013.5 hPa | 0 mm | - | 331 W/m² | - |
| 1777638028 | 10.56° C | 65% | 1013.4 hPa | 0 mm | - | 323 W/m² | - |
| 1777637726 | 10° C | 69% | 1013.4 hPa | 0 mm | - | 286 W/m² | - |
| 1777637422 | 9.44° C | 70% | 1013.6 hPa | 0 mm | - | 244 W/m² | - |
| 1777637120 | 8.89° C | 73% | 1013.5 hPa | 0 mm | - | 215 W/m² | - |
| 1777636816 | 8.89° C | 75% | 1013.6 hPa | 0 mm | - | 148 W/m² | - |
* Rain latest hour (hover to see other rain measurements)
** Current wind speed in m/s (hover to see current wind gust speed)